User: anonymous   Login
Location: Stillwell
(40.4602°N, 82.0928°W)
Time: 14:12:49
(UTC-05:00)
Language:

Cosmos 2333 Rocket - Orbit

View from above orbital plane
View from above orbital plane
View from above satellite
View from above satellite

Ground track
Ground track

The orbit data is extracted from the following two-line orbital elements,

1 24298U 96051B   17049.88647856 +.00000064 +00000-0 +61014-4 0  9995
2 24298 070.8496 311.4021 0014895 346.0762 013.9945 14.12479579054850
Epoch (UTC): 18 February 2017 21:16:31
Eccentricity: 0.0014895
inclination: 70.8496°
perigee height: 840 km
apogee height: 861 km
right ascension of ascending node: 311.4021°
argument of perigee: 346.0762°
revolutions per day: 14.12479579
mean anomaly at epoch: 13.9945°
orbit number at epoch: 5485

The dashed part of the orbit path shows where the satellite is in the earth's shadow,  

DLR